Burnet, TX

5:48 AM CST on December 05, 2016 (GMT -0600)
Burnet Municipal-Craddock

Weather History for KBMQ - March, 2014

Change the Weather History Date:

Wednesday, March 26, 2014

  Actual Average Record
Temperature  
Mean Temperature 56 °F -  
Max Temperature 64 °F 68 °F 91 °F (2011)
Min Temperature 51 °F 49 °F 32 °F (2013)
Degree Days  
Heating Degree Days 8    
Growing Degree Days 6 (Base 50)    
Moisture  
Dew Point 45 °F    
Average Humidity 64    
Maximum Humidity 81    
Minimum Humidity 37    
Precipitation  
Precipitation 0.00 in - - ()
Sea Level Pressure  
Sea Level Pressure 30.05 in    
Wind  
Wind Speed 10 mph (SSE)    
Max Wind Speed 22 mph    
Max Gust Speed 36 mph    
Visibility 10 miles    
Events Rain    
Averages and records for this station are not official NWS values.
T = Trace of Precipitation, MM = Missing Value Source: NWS Daily Summary

Daily Weather History Graph

Daily Weather History Graph

Search for Another Location

Airport or City:

Trip Planner

Search our weather history database for the weather conditions in past years. The results will help you decide how hot, cold, wet, or windy it might be!

Date:

Astronomy

Mar. 26, 2014 Rise Set
Actual Time 7:29 AM CDT 7:48 PM CDT
Civil Twilight 7:05 AM CDT 8:12 PM CDT
Nautical Twilight 6:36 AM CDT 8:40 PM CDT
Astronomical Twilight 6:08 AM CDT 9:09 PM CDT
Moon 4:21 AM CDT (3/26) 3:44 PM CDT (3/26)
Length of Visible Light 13h 07m
Length of Day
12h 19m
Waning Crescent, 21% of the Moon is Illuminated
Mar 26
Waning Crescent
Mar 30
New
Apr 7
First Quarter
Apr 15
Full
Apr 22
Last Quarter

Hourly Weather History & Observations

Time (CDT) Temp. Dew Point Humidity Pressure Visibility Wind Dir Wind Speed Gust Speed Precip Events Conditions
12:53 AM 51.1 °F 30.0 °F 44% 30.19 in 10.0 mi Calm Calm - N/A   Clear
1:53 AM 53.1 °F 30.0 °F 41% 30.18 in 10.0 mi SE 5.8 mph - N/A   Mostly Cloudy
2:53 AM 54.0 °F 28.0 °F 37% 30.16 in 10.0 mi SE 6.9 mph - N/A   Scattered Clouds
3:53 AM 54.0 °F 34.0 °F 47% 30.13 in 10.0 mi SSE 10.4 mph 17.3 mph N/A   Partly Cloudy
4:53 AM 52.0 °F 42.1 °F 69% 30.10 in 10.0 mi SSE 9.2 mph - 0.00 in Rain Light Rain
5:53 AM 52.0 °F 43.0 °F 71% 30.10 in 10.0 mi SSE 8.1 mph - 0.00 in   Overcast
6:53 AM 52.0 °F 45.0 °F 77% 30.09 in 10.0 mi SSE 6.9 mph - 0.00 in   Overcast
7:53 AM 53.1 °F 44.1 °F 71% 30.10 in 10.0 mi SSE 9.2 mph 19.6 mph 0.00 in   Mostly Cloudy
8:53 AM 54.0 °F 44.1 °F 69% 30.11 in 10.0 mi SSE 9.2 mph 18.4 mph N/A   Overcast
9:53 AM 55.9 °F 44.1 °F 64% 30.12 in 10.0 mi SSE 12.7 mph 19.6 mph N/A   Overcast
10:14 AM 55.9 °F 45.0 °F 67% 30.14 in 10.0 mi South 10.4 mph 27.6 mph N/A   Overcast
10:40 AM 57.9 °F 45.0 °F 62% 30.13 in 10.0 mi SSE 13.8 mph 23.0 mph N/A   Overcast
10:53 AM 59.0 °F 46.0 °F 62% 30.10 in 10.0 mi SSE 17.3 mph 28.8 mph N/A   Overcast
11:53 AM 61.0 °F 44.1 °F 54% 30.08 in 10.0 mi South 18.4 mph 31.1 mph N/A   Mostly Cloudy
12:53 PM 61.0 °F 45.0 °F 56% 30.07 in 10.0 mi South 21.9 mph 35.7 mph N/A   Overcast
1:53 PM 59.0 °F 45.0 °F 60% 30.05 in 10.0 mi South 19.6 mph 33.4 mph N/A   Overcast
2:49 PM 59.0 °F 46.4 °F 63% 30.04 in 10.0 mi South 20.7 mph 33.4 mph N/A   Overcast
2:53 PM 59.0 °F 46.9 °F 64% 30.02 in 10.0 mi South 12.7 mph 33.4 mph N/A   Overcast
3:53 PM 60.1 °F 46.9 °F 62% 29.99 in 10.0 mi South 17.3 mph 26.5 mph N/A   Overcast
4:03 PM 61.0 °F 46.9 °F 60% 30.01 in 10.0 mi South 13.8 mph 24.2 mph N/A   Overcast
4:53 PM 62.1 °F 46.0 °F 56% 29.97 in 10.0 mi South 13.8 mph 24.2 mph N/A   Overcast
5:53 PM 61.0 °F 46.9 °F 60% 29.96 in 10.0 mi South 15.0 mph 20.7 mph N/A   Overcast
6:12 PM 61.0 °F 50.0 °F 67% 29.99 in 10.0 mi South 16.1 mph 25.3 mph N/A   Overcast
6:53 PM 60.1 °F 51.1 °F 72% 29.97 in 10.0 mi South 17.3 mph 24.2 mph N/A   Overcast
7:53 PM 60.1 °F 52.0 °F 75% 29.96 in 10.0 mi SSE 11.5 mph 21.9 mph N/A   Overcast
8:53 PM 59.0 °F 53.1 °F 81% 29.94 in 10.0 mi SSE 12.7 mph 24.2 mph N/A   Overcast
9:53 PM 60.1 °F 53.1 °F 78% 29.95 in 10.0 mi South 12.7 mph 24.2 mph N/A   Overcast
10:40 PM 60.1 °F 54.0 °F 80% 29.96 in 10.0 mi South 18.4 mph 27.6 mph N/A   Overcast
10:53 PM 60.1 °F 54.0 °F 80% 29.93 in 10.0 mi South 15.0 mph 26.5 mph N/A   Overcast
11:53 PM 60.1 °F 54.0 °F 80% 29.91 in 8.0 mi South 18.4 mph 29.9 mph N/A   Overcast